Location: Heidgraben
(53.7081°N, 9.6576°E)
Time: 08:04:22
(UTC+00:00)

CZ-4C R/B - Pass Details

Date: 05 July 2020
Orbit: 632 x 1370 km, 63.4° (Epoch: 14 August)

Event Time Altitude Azimuth Distance (km) Brightness Sun altitude
Rises 23:23:43 0° 311° (NW) 3,683 6.2 -13.6°
Reaches altitude 10° 23:26:07 10° 312° (NW) 2,833 5.5 -13.6°
Maximum altitude 23:32:59 87° 42° (NE) 1,180 2.9 -13.6°
Drops below altitude 10° 23:41:06 10° 133° (SE) 3,312 4.9 -13.6°
Sets 23:44:06 0° 133° (SE) 4,337 5.5 -13.5°
